Home   Weather   Repentigny   Past weeks

Flag for Canada Past Weather in Repentigny, Quebec, Canada — Yesterday and Last 2 Weeks

Now
25 °F

Cold.


Feels Like: 25 °F
Forecast: 24 / 31 °F
Wind: 2 mph from Northwest

Location: L'Assomption Airport

Current Time: Dec 4, 2016 at 9:26:34 am

Latest Report: Dec 4, 2016 at 8:00 am


Visibility: N/A

Pressure: 30.28 "Hg

Humidity: 84%

Dew Point: 21 °F

Location of RepentignyLocation

Past Weather in Repentigny — Graph

°F

Repentigny Temperature Yesterday

Maximum temperature yesterday: 37 °F (at 12:00 pm)
Minimum temperature yesterday: 30 °F (at 11:00 pm)
Average temperature yesterday: 34 °F

High & Low Weather Summary for the Past Weeks

 TemperatureHumidityPressure
High50 °F (Nov 19, 3:00 pm)100% (Nov 19, 8:00 am)30.39 "Hg (Nov 19, 8:00 am)
Low25 °F (Dec 4, 7:00 am)66% (Nov 23, 2:00 pm)29.18 "Hg (Nov 21, 1:00 am)
Average34 °F89%29.92 "Hg
* Reported Nov 19 8:00 am — Dec 4 8:00 am, Repentigny, Weather by CustomWeather, © 2016

Note: Actual official high and low records may vary slightly from our data, if they occured in-between our weather recording intervals... More about our weather records

Advertising

Repentigny Weather History for the Previous 24 Hours

Scroll right to see more
 ConditionsComfort  
Time TempWeatherWind HumidityBarometerVisibility
8:00 am
Sun, Dec 4
25 °FCold.2 mph84%30.28 "HgN/A
7:00 am25 °FCold.3 mph86%30.26 "HgN/A
6:00 am26 °FChilly.3 mph83%30.26 "HgN/A
5:00 am28 °FChilly.5 mph78%30.25 "HgN/A
4:00 am29 °FChilly.6 mph75%30.24 "HgN/A
3:00 am31 °FChilly.6 mph69%30.22 "HgN/A
2:00 am30 °FChilly.7 mph74%30.21 "HgN/A
1:00 am30 °FChilly.7 mph73%30.19 "HgN/A
12:00 am30 °FChilly.7 mph72%30.19 "HgN/A
11:00 pm
Sat, Dec 3
30 °FChilly.7 mph71%30.18 "HgN/A
10:00 pm31 °FChilly.10 mph69%30.17 "HgN/A
9:00 pm31 °FChilly.8 mph68%30.16 "HgN/A
8:00 pm32 °FChilly.8 mph67%30.14 "HgN/A
7:00 pm32 °FChilly.10 mph74%30.13 "HgN/A
6:00 pm31 °FChilly.6 mph74%30.10 "HgN/A
5:00 pm32 °FChilly.9 mph71%30.08 "HgN/A
4:00 pm34 °FChilly.9 mph67%30.05 "HgN/A
3:00 pm37 °FChilly.8 mph66%30.03 "HgN/A
2:00 pm35 °FChilly.9 mph66%30.01 "HgN/A
1:00 pm36 °FChilly.9 mph70%30.00 "HgN/A
12:00 pm37 °FChilly.6 mph73%29.99 "HgN/A
11:00 am36 °FChilly.10 mph69%29.99 "HgN/A
10:00 am36 °FChilly.8 mph72%29.98 "HgN/A
9:00 am36 °FChilly.8 mph76%29.96 "HgN/A
Weather by CustomWeather, © 2016

See weather overviewHow to use our weather pages